| time (UTC) | temp F | wind direction | speed knots | gust knots | rain 1hr in | rain 24hr in | rain mn in | humidity % | barometer mb |
| 20260901213519 | 98 | 0 | 0.0 | 2.6 | 0.00 | 0.00 | 0.00 | 40 | 1016.3 |
| 20260901213044 | 98 | 0 | 0.0 | 3.5 | 0.00 | 0.00 | 0.00 | 41 | 1016.2 |
| 20260901212520 | 98 | 0 | 0.9 | 3.5 | 0.00 | 0.00 | 0.00 | 40 | 1016.3 |
| 20260901212020 | 98 | 94 | 0.0 | 4.3 | 0.00 | 0.00 | 0.00 | 39 | 1016.4 |
| 20260901211540 | 98 | 42 | 0.9 | 4.3 | 0.00 | 0.00 | 0.00 | 41 | 1016.4 |
| 20260901211024 | 98 | 22 | 0.9 | 5.2 | 0.00 | 0.00 | 0.00 | 40 | 1016.4 |
| 20260901210521 | 99 | 29 | 0.0 | 5.2 | 0.00 | 0.00 | 0.00 | 39 | 1016.4 |
| 20260901210042 | 99 | 82 | 0.0 | 5.2 | 0.00 | 0.00 | 0.00 | 40 | 1016.4 |
| 20260901205522 | 99 | 37 | 0.0 | 2.6 | 0.00 | 0.00 | 0.00 | 40 | 1016.5 |
| 20260901205017 | 99 | 0 | 0.0 | 2.6 | 0.00 | 0.00 | 0.00 | 40 | 1016.6 |
| 20260901204541 | 99 | 0 | 0.0 | 2.6 | 0.00 | 0.00 | 0.00 | 41 | 1016.4 |
| 20260901204018 | 99 | 243 | 0.0 | 2.6 | 0.00 | 0.00 | 0.00 | 40 | 1016.5 |
| 20260901203518 | 99 | 0 | 0.0 | 2.6 | 0.00 | 0.00 | 0.00 | 41 | 1016.5 |
| 20260901203043 | 99 | 0 | 0.0 | 3.5 | 0.00 | 0.00 | 0.00 | 45 | 1016.7 |
| 20260901202521 | 99 | 0 | 0.9 | 3.5 | 0.00 | 0.00 | 0.00 | 42 | 1016.7 |
| 20260901202019 | 99 | 288 | 0.0 | 5.2 | 0.00 | 0.00 | 0.00 | 42 | 1016.7 |
| 20260901201540 | 99 | 291 | 0.9 | 5.2 | 0.00 | 0.00 | 0.00 | 43 | 1016.8 |
| 20260901201021 | 99 | 209 | 0.0 | 2.6 | 0.00 | 0.00 | 0.00 | 45 | 1016.9 |
| 20260901200517 | 99 | 65 | 0.0 | 2.6 | 0.00 | 0.00 | 0.00 | 43 | 1016.9 |
| 20260901200051 | 100 | 0 | 0.0 | 4.3 | 0.00 | 0.00 | 0.00 | 41 | 1017.2 |
| 20260901195520 | 100 | 0 | 0.9 | 5.2 | 0.00 | 0.00 | 0.00 | 44 | 1017.0 |
| 20260901195019 | 101 | 88 | 1.7 | 5.2 | 0.00 | 0.00 | 0.00 | 40 | 1017.1 |
| 20260901194554 | 101 | 84 | 0.9 | 3.5 | 0.00 | 0.00 | 0.00 | 44 | 1017.0 |
| 20260901194018 | 101 | 149 | 0.0 | 3.5 | 0.00 | 0.00 | 0.00 | 44 | 1017.1 |
| 20260901193518 | 101 | 136 | 0.0 | 5.2 | 0.00 | 0.00 | 0.00 | 49 | 1017.3 |
| 20260901193041 | 100 | 0 | 0.9 | 5.2 | 0.00 | 0.00 | 0.00 | 47 | 1017.2 |
| 20260901192517 | 100 | 193 | 0.9 | 4.3 | 0.00 | 0.00 | 0.00 | 47 | 1017.2 |
| 20260901192020 | 99 | 182 | 0.0 | 3.5 | 0.00 | 0.00 | 0.00 | 48 | 1017.5 |
| 20260901191540 | 99 | 190 | 0.9 | 3.5 | 0.00 | 0.00 | 0.00 | 45 | 1017.6 |
| 20260901191022 | 99 | 126 | 0.0 | 2.6 | 0.00 | 0.00 | 0.00 | 46 | 1017.7 |
| 20260901190521 | 99 | 82 | 0.0 | 3.5 | 0.00 | 0.00 | 0.00 | 45 | 1017.7 |
| 20260901190046 | 99 | 0 | 0.0 | 3.5 | 0.00 | 0.00 | 0.00 | 44 | 1018.0 |
| 20260901185520 | 99 | 45 | 0.0 | 3.5 | 0.00 | 0.00 | 0.00 | 47 | 1017.9 |
| 20260901185019 | 98 | 0 | 0.9 | 3.5 | 0.00 | 0.00 | 0.00 | 46 | 1017.9 |
| 20260901184542 | 98 | 41 | 0.9 | 2.6 | 0.00 | 0.00 | 0.00 | 45 | 1017.9 |
| 20260901184021 | 98 | 0 | 0.0 | 6.1 | 0.00 | 0.00 | 0.00 | 47 | 1017.9 |
| 20260901183522 | 98 | 33 | 0.0 | 6.1 | 0.00 | 0.00 | 0.00 | 44 | 1018.1 |
| 20260901183043 | 98 | 5 | 0.0 | 3.5 | 0.00 | 0.00 | 0.00 | 46 | 1018.0 |
| 20260901182524 | 98 | 92 | 0.0 | 5.2 | 0.00 | 0.00 | 0.00 | 46 | 1018.3 |
| 20260901182020 | 98 | 0 | 0.0 | 6.1 | 0.00 | 0.00 | 0.00 | 47 | 1018.3 |
| 20260901181538 | 99 | 43 | 0.9 | 6.1 | 0.00 | 0.00 | 0.00 | 45 | 1018.3 |
| 20260901181021 | 99 | 0 | 0.0 | 3.5 | 0.00 | 0.00 | 0.00 | 47 | 1018.3 |
| 20260901180519 | 98 | 0 | 0.0 | 3.5 | 0.00 | 0.00 | 0.00 | 45 | 1018.4 |
| 20260901180039 | 98 | 0 | 0.9 | 3.5 | 0.00 | 0.00 | 0.00 | 49 | 1018.4 |
| 20260901175521 | 98 | 33 | 0.9 | 3.5 | 0.00 | 0.00 | 0.00 | 48 | 1018.5 |
| 20260901175018 | 98 | 0 | 0.0 | 2.6 | 0.00 | 0.00 | 0.00 | 48 | 1018.5 |
| 20260901174550 | 98 | 0 | 0.0 | 2.6 | 0.00 | 0.00 | 0.00 | 50 | 1018.6 |
| 20260901174023 | 97 | 11 | 0.0 | 2.6 | 0.00 | 0.00 | 0.00 | 50 | 1018.7 |
| 20260901173520 | 97 | 352 | 0.0 | 2.6 | 0.00 | 0.00 | 0.00 | 51 | 1018.6 |
| 20260901173040 | 98 | 0 | 0.0 | 6.1 | 0.00 | 0.00 | 0.00 | 47 | 1018.8 |
| 20260901172518 | 99 | 0 | 0.9 | 6.1 | 0.00 | 0.00 | 0.00 | 47 | 1018.9 |
| 20260901172020 | 99 | 195 | 1.7 | 5.2 | 0.00 | 0.00 | 0.00 | 51 | 1019.0 |
| 20260901171539 | 98 | 0 | 0.0 | 2.6 | 0.00 | 0.00 | 0.00 | 49 | 1019.1 |
| 20260901171020 | 98 | 0 | 0.0 | 3.5 | 0.00 | 0.00 | 0.00 | 52 | 1019.2 |
| 20260901170521 | 98 | 0 | 0.9 | 3.5 | 0.00 | 0.00 | 0.00 | 50 | 1019.3 |
| 20260901170122 | 98 | 136 | 0.0 | 3.5 | 0.00 | 0.00 | 0.00 | 48 | 1019.2 |
| 20260901165520 | 97 | 0 | 0.0 | 3.5 | 0.00 | 0.00 | 0.00 | 50 | 1019.4 |
| 20260901165022 | 97 | 0 | 0.9 | 2.6 | 0.00 | 0.00 | 0.00 | 51 | 1019.5 |
| 20260901164542 | 97 | 0 | 0.0 | 3.5 | 0.00 | 0.00 | 0.00 | 51 | 1019.5 |
| 20260901164020 | 97 | 29 | 0.9 | 3.5 | 0.00 | 0.00 | 0.00 | 53 | 1019.6 |
| 20260901163522 | 97 | 59 | 0.0 | 2.6 | 0.00 | 0.00 | 0.00 | 50 | 1019.5 |
| 20260901163037 | 97 | 0 | 0.0 | 3.5 | 0.00 | 0.00 | 0.00 | 49 | 1019.6 |
| 20260901162518 | 98 | 0 | 0.0 | 3.5 | 0.00 | 0.00 | 0.00 | 49 | 1019.6 |
| 20260901162021 | 98 | 64 | 0.0 | 3.5 | 0.00 | 0.00 | 0.00 | 51 | 1019.5 |
| 20260901161548 | 98 | 191 | 0.0 | 3.5 | 0.00 | 0.00 | 0.00 | 49 | 1019.5 |
| 20260901161022 | 97 | 333 | 0.9 | 3.5 | 0.00 | 0.00 | 0.00 | 54 | 1019.5 |
| 20260901160519 | 98 | 0 | 0.0 | 4.3 | 0.00 | 0.00 | 0.00 | 56 | 1019.7 |
| 20260901160043 | 97 | 197 | 0.9 | 4.3 | 0.00 | 0.00 | 0.00 | 54 | 1019.7 |
| 20260901155517 | 97 | 0 | 0.9 | 3.5 | 0.00 | 0.00 | 0.00 | 53 | 1019.8 |
| 20260901155027 | 96 | 286 | 0.0 | 3.5 | 0.00 | 0.00 | 0.00 | 56 | 1019.8 |
| 20260901154540 | 96 | 0 | 1.7 | 4.3 | 0.00 | 0.00 | 0.00 | 55 | 1019.7 |
| 20260901154019 | 96 | 0 | 0.9 | 4.3 | 0.00 | 0.00 | 0.00 | 58 | 1019.8 |
| 20260901153522 | 95 | 0 | 0.9 | 2.6 | 0.00 | 0.00 | 0.00 | 60 | 1019.8 |
| 20260901153059 | 94 | 53 | 0.0 | 1.7 | 0.00 | 0.00 | 0.00 | 59 | 1019.8 |
| 20260901152519 | 93 | 0 | 0.0 | 1.7 | 0.00 | 0.00 | 0.00 | 62 | 1019.8 |
| 20260901152020 | 93 | 0 | 0.0 | 2.6 | 0.00 | 0.00 | 0.00 | 62 | 1019.9 |
| 20260901151539 | 92 | 25 | 0.0 | 2.6 | 0.00 | 0.00 | 0.00 | 64 | 1019.8 |
| 20260901151018 | 92 | 0 | 0.0 | 1.7 | 0.00 | 0.00 | 0.00 | 63 | 1019.7 |
| 20260901150517 | 91 | 0 | 0.0 | 1.7 | 0.00 | 0.00 | 0.00 | 63 | 1019.9 |
| 20260901150039 | 91 | 0 | 0.0 | 1.7 | 0.00 | 0.00 | 0.00 | 63 | 1019.8 |
| 20260901145519 | 92 | 17 | 0.0 | 2.6 | 0.00 | 0.00 | 0.00 | 63 | 1019.8 |
| 20260901145022 | 92 | 0 | 0.0 | 2.6 | 0.00 | 0.00 | 0.00 | 64 | 1019.9 |
| 20260901144547 | 92 | 34 | 0.0 | 2.6 | 0.00 | 0.00 | 0.00 | 65 | 1019.9 |
| 20260901144020 | 91 | 0 | 0.0 | 2.6 | 0.00 | 0.00 | 0.00 | 65 | 1019.9 |
| 20260901143521 | 91 | 34 | 0.0 | 2.6 | 0.00 | 0.00 | 0.00 | 66 | 1019.9 |
| 20260901143046 | 91 | 0 | 0.0 | 1.7 | 0.00 | 0.00 | 0.00 | 66 | 1020.0 |
| 20260901142518 | 90 | 0 | 0.0 | 0.9 | 0.00 | 0.00 | 0.00 | 67 | 1020.0 |
| 20260901142020 | 90 | 0 | 0.0 | 0.9 | 0.00 | 0.00 | 0.00 | 67 | 1019.9 |
| 20260901141543 | 89 | 0 | 0.0 | 1.7 | 0.00 | 0.00 | 0.00 | 67 | 1019.9 |
| 20260901141017 | 89 | 0 | 0.0 | 1.7 | 0.00 | 0.00 | 0.00 | 69 | 1020.0 |
| 20260901140523 | 88 | 0 | 0.0 | 2.6 | 0.00 | 0.00 | 0.00 | 71 | 1020.0 |
| 20260901140040 | 88 | 0 | 0.0 | 2.6 | 0.00 | 0.00 | 0.00 | 70 | 1019.9 |
| 20260901135522 | 88 | 28 | 0.0 | 1.7 | 0.00 | 0.00 | 0.00 | 70 | 1019.9 |
| 20260901135024 | 87 | 27 | 0.0 | 0.9 | 0.00 | 0.00 | 0.00 | 72 | 1019.8 |
| 20260901134542 | 86 | 0 | 0.0 | 0.9 | 0.00 | 0.00 | 0.00 | 72 | 1019.7 |
| 20260901134017 | 86 | 0 | 0.0 | 0.9 | 0.00 | 0.00 | 0.00 | 72 | 1019.9 |
| 20260901133520 | 85 | 0 | 0.0 | 3.5 | 0.00 | 0.00 | 0.00 | 74 | 1019.8 |
| 20260901133042 | 84 | 0 | 0.0 | 3.5 | 0.00 | 0.00 | 0.00 | 74 | 1019.8 |
| 20260901132521 | 83 | 0 | 0.0 | 1.7 | 0.00 | 0.00 | 0.00 | 74 | 1019.9 |
| 20260901132018 | 82 | 0 | 0.0 | 0.9 | 0.00 | 0.00 | 0.00 | 73 | 1019.9 |
| 20260901131541 | 81 | 0 | 0.0 | 0.9 | 0.00 | 0.00 | 0.00 | 71 | 1020.0 |
| 20260901131021 | 80 | 0 | 0.0 | 1.7 | 0.00 | 0.00 | 0.00 | 68 | 1020.1 |
| 20260901130521 | 79 | 0 | 0.0 | 1.7 | 0.00 | 0.00 | 0.00 | 65 | 1020.1 |
| 20260901130052 | 78 | 0 | 0.0 | 0.9 | 0.00 | 0.00 | 0.00 | 56 | 1019.9 |
| 20260901125518 | 77 | 0 | 0.0 | 0.9 | 0.00 | 0.00 | 0.00 | 49 | 1019.9 |
| 20260901125022 | 77 | 0 | 0.0 | 0.9 | 0.00 | 0.00 | 0.00 | 38 | 1019.8 |
| 20260901124541 | 77 | 0 | 0.0 | 0.0 | 0.00 | 0.00 | 0.00 | 30 | 1019.9 |
| 20260901124023 | 76 | 0 | 0.0 | 0.0 | 0.00 | 0.00 | 0.00 | 28 | 1019.7 |
| 20260901123520 | 76 | 0 | 0.0 | 0.0 | 0.00 | 0.00 | 0.00 | 25 | 1019.7 |
| 20260901123043 | 76 | 0 | 0.0 | 0.0 | 0.00 | 0.00 | 0.00 | 24 | 1019.8 |
| 20260901122519 | 75 | 0 | 0.0 | 0.0 | 0.00 | 0.00 | 0.00 | 22 | 1019.7 |
| 20260901122022 | 75 | 0 | 0.0 | 0.0 | 0.00 | 0.00 | 0.00 | 20 | 1019.7 |
| 20260901121539 | 75 | 0 | 0.0 | 0.0 | 0.00 | 0.00 | 0.00 | 24 | 1019.6 |
| 20260901121021 | 75 | 0 | 0.0 | 0.0 | 0.00 | 0.00 | 0.00 | 23 | 1019.4 |
| 20260901120521 | 75 | 0 | 0.0 | 0.0 | 0.00 | 0.00 | 0.00 | 21 | 1019.3 |
| 20260901120036 | 75 | 0 | 0.0 | 0.0 | 0.00 | 0.00 | 0.00 | 22 | 1019.4 |
| 20260901115520 | 75 | 0 | 0.0 | 0.0 | 0.00 | 0.00 | 0.00 | 24 | 1019.4 |
| 20260901115020 | 75 | 0 | 0.0 | 0.0 | 0.00 | 0.00 | 0.00 | 25 | 1019.2 |
| 20260901114537 | 75 | 0 | 0.0 | 0.0 | 0.00 | 0.00 | 0.00 | 26 | 1019.2 |
| 20260901114017 | 75 | 0 | 0.0 | 0.0 | 0.00 | 0.00 | 0.00 | 30 | 1019.1 |
| 20260901113518 | 75 | 0 | 0.0 | 0.0 | 0.00 | 0.00 | 0.00 | 30 | 1019.0 |
| 20260901113040 | 75 | 0 | 0.0 | 0.0 | 0.00 | 0.00 | 0.00 | 32 | 1018.9 |
| 20260901112519 | 75 | 0 | 0.0 | 0.0 | 0.00 | 0.00 | 0.00 | 32 | 1018.8 |
| 20260901112024 | 75 | 0 | 0.0 | 0.0 | 0.00 | 0.00 | 0.00 | 32 | 1018.8 |
| 20260901111539 | 75 | 0 | 0.0 | 0.0 | 0.00 | 0.00 | 0.00 | 34 | 1018.7 |
| 20260901111019 | 75 | 0 | 0.0 | 0.0 | 0.00 | 0.00 | 0.00 | 33 | 1018.7 |
| 20260901110521 | 75 | 0 | 0.0 | 0.0 | 0.00 | 0.00 | 0.00 | 34 | 1018.7 |
| 20260901110041 | 75 | 0 | 0.0 | 0.0 | 0.00 | 0.00 | 0.00 | 37 | 1018.6 |
| 20260901105517 | 75 | 0 | 0.0 | 0.0 | 0.00 | 0.00 | 0.00 | 37 | 1018.7 |
| 20260901105020 | 75 | 0 | 0.0 | 0.0 | 0.00 | 0.00 | 0.00 | 40 | 1018.7 |
| 20260901104541 | 75 | 0 | 0.0 | 0.0 | 0.00 | 0.00 | 0.00 | 38 | 1018.6 |
| 20260901104017 | 75 | 0 | 0.0 | 0.0 | 0.00 | 0.00 | 0.00 | 40 | 1018.5 |
| 20260901103517 | 75 | 0 | 0.0 | 0.0 | 0.00 | 0.00 | 0.00 | 39 | 1018.5 |
| 20260901103038 | 75 | 0 | 0.0 | 0.0 | 0.00 | 0.00 | 0.00 | 41 | 1018.4 |
| 20260901102521 | 75 | 0 | 0.0 | 0.0 | 0.00 | 0.00 | 0.00 | 43 | 1018.4 |
| 20260901102018 | 75 | 0 | 0.0 | 0.0 | 0.00 | 0.00 | 0.00 | 46 | 1018.5 |
| 20260901101543 | 75 | 0 | 0.0 | 0.0 | 0.00 | 0.00 | 0.00 | 43 | 1018.4 |
| 20260901101017 | 75 | 0 | 0.0 | 0.0 | 0.00 | 0.00 | 0.00 | 45 | 1018.4 |
| 20260901100519 | 75 | 0 | 0.0 | 0.0 | 0.00 | 0.00 | 0.00 | 45 | 1018.4 |
| 20260901100045 | 76 | 0 | 0.0 | 0.0 | 0.00 | 0.00 | 0.00 | 46 | 1018.4 |
| 20260901095521 | 76 | 0 | 0.0 | 0.0 | 0.00 | 0.00 | 0.00 | 47 | 1018.4 |
| 20260901095020 | 76 | 0 | 0.0 | 0.0 | 0.00 | 0.00 | 0.00 | 48 | 1018.4 |
| 20260901094538 | 76 | 0 | 0.0 | 0.0 | 0.00 | 0.00 | 0.00 | 48 | 1018.4 |
| 20260901094019 | 76 | 0 | 0.0 | 0.0 | 0.00 | 0.00 | 0.00 | 47 | 1018.4 |
| 20260901093521 | 76 | 0 | 0.0 | 0.0 | 0.00 | 0.00 | 0.00 | 48 | 1018.5 |
| 20260901093042 | 76 | 0 | 0.0 | 0.0 | 0.00 | 0.00 | 0.00 | 51 | 1018.4 |
| 20260901092521 | 76 | 0 | 0.0 | 0.0 | 0.00 | 0.00 | 0.00 | 53 | 1018.4 |
| 20260901092019 | 76 | 0 | 0.0 | 0.0 | 0.00 | 0.00 | 0.00 | 51 | 1018.3 |
| 20260901091541 | 76 | 0 | 0.0 | 0.0 | 0.00 | 0.00 | 0.00 | 52 | 1018.4 |
| 20260901091018 | 76 | 0 | 0.0 | 0.0 | 0.00 | 0.00 | 0.00 | 51 | 1018.2 |
| 20260901090518 | 76 | 0 | 0.0 | 0.0 | 0.00 | 0.00 | 0.00 | 53 | 1018.3 |
| 20260901090045 | 76 | 0 | 0.0 | 0.0 | 0.00 | 0.00 | 0.00 | 58 | 1018.1 |
| 20260901085524 | 76 | 0 | 0.0 | 0.0 | 0.00 | 0.00 | 0.00 | 57 | 1017.9 |
| 20260901085024 | 76 | 0 | 0.0 | 0.0 | 0.00 | 0.00 | 0.00 | 57 | 1017.9 |
| 20260901084558 | 76 | 0 | 0.0 | 0.0 | 0.00 | 0.00 | 0.00 | 57 | 1017.8 |
| 20260901084024 | 77 | 0 | 0.0 | 0.0 | 0.00 | 0.00 | 0.00 | 57 | 1018.1 |
| 20260901083522 | 77 | 0 | 0.0 | 0.0 | 0.00 | 0.00 | 0.00 | 58 | 1017.9 |
| 20260901083048 | 77 | 0 | 0.0 | 0.0 | 0.00 | 0.00 | 0.00 | 61 | 1018.1 |
| 20260901082518 | 77 | 0 | 0.0 | 0.0 | 0.00 | 0.00 | 0.00 | 63 | 1018.0 |
| 20260901082017 | 77 | 0 | 0.0 | 0.0 | 0.00 | 0.00 | 0.00 | 62 | 1017.9 |
| 20260901081540 | 77 | 0 | 0.0 | 0.0 | 0.00 | 0.00 | 0.00 | 62 | 1017.9 |
| 20260901081017 | 77 | 0 | 0.0 | 0.0 | 0.00 | 0.00 | 0.00 | 64 | 1017.8 |
| 20260901080518 | 77 | 0 | 0.0 | 0.0 | 0.00 | 0.00 | 0.00 | 65 | 1017.7 |
| 20260901080041 | 77 | 0 | 0.0 | 0.0 | 0.00 | 0.00 | 0.00 | 66 | 1017.7 |
| 20260901075525 | 77 | 0 | 0.0 | 0.0 | 0.00 | 0.00 | 0.00 | 66 | 1017.7 |
| 20260901075025 | 77 | 0 | 0.0 | 0.0 | 0.00 | 0.00 | 0.00 | 68 | 1017.7 |
| 20260901074541 | 77 | 0 | 0.0 | 0.0 | 0.00 | 0.00 | 0.00 | 69 | 1017.6 |
| 20260901074023 | 78 | 0 | 0.0 | 0.0 | 0.00 | 0.00 | 0.00 | 68 | 1017.7 |
| 20260901073520 | 78 | 0 | 0.0 | 0.0 | 0.00 | 0.00 | 0.00 | 69 | 1017.7 |
| 20260901073043 | 78 | 0 | 0.0 | 0.0 | 0.00 | 0.00 | 0.00 | 69 | 1017.7 |
| 20260901072520 | 78 | 0 | 0.0 | 0.0 | 0.00 | 0.00 | 0.00 | 69 | 1017.6 |
| 20260901072018 | 78 | 0 | 0.0 | 0.0 | 0.00 | 0.00 | 0.00 | 70 | 1017.6 |
| 20260901071541 | 78 | 0 | 0.0 | 0.0 | 0.00 | 0.00 | 0.00 | 70 | 1017.6 |
| 20260901071019 | 78 | 0 | 0.0 | 0.0 | 0.00 | 0.00 | 0.00 | 70 | 1017.7 |
| 20260901070523 | 78 | 0 | 0.0 | 0.0 | 0.00 | 0.00 | 0.00 | 70 | 1017.7 |
| 20260901070040 | 78 | 0 | 0.0 | 0.0 | 0.00 | 0.00 | 0.00 | 70 | 1017.6 |
| 20260901065523 | 78 | 0 | 0.0 | 0.0 | 0.00 | 0.00 | 0.00 | 70 | 1017.6 |
| 20260901065023 | 78 | 0 | 0.0 | 0.0 | 0.00 | 0.00 | 0.00 | 70 | 1017.6 |
| 20260901064543 | 78 | 0 | 0.0 | 0.0 | 0.00 | 0.00 | 0.00 | 71 | 1017.6 |
| 20260901064021 | 78 | 0 | 0.0 | 0.0 | 0.00 | 0.00 | 0.00 | 71 | 1017.7 |
| 20260901063517 | 78 | 0 | 0.0 | 0.0 | 0.00 | 0.00 | 0.00 | 72 | 1017.7 |
| 20260901063042 | 78 | 0 | 0.0 | 0.0 | 0.00 | 0.00 | 0.00 | 72 | 1017.7 |
| 20260901062520 | 79 | 0 | 0.0 | 0.0 | 0.00 | 0.00 | 0.00 | 72 | 1017.7 |
| 20260901062025 | 79 | 0 | 0.0 | 0.0 | 0.00 | 0.00 | 0.00 | 72 | 1017.8 |
| 20260901061549 | 79 | 0 | 0.0 | 0.0 | 0.00 | 0.00 | 0.00 | 72 | 1017.7 |
| 20260901061024 | 79 | 0 | 0.0 | 0.0 | 0.00 | 0.00 | 0.00 | 73 | 1017.7 |
| 20260901060525 | 79 | 0 | 0.0 | 0.0 | 0.00 | 0.00 | 0.00 | 73 | 1017.9 |
| 20260901060047 | 79 | 0 | 0.0 | 0.0 | 0.00 | 0.00 | 0.00 | 74 | 1017.8 |
| 20260901055523 | 79 | 0 | 0.0 | 0.0 | 0.00 | 0.00 | 0.00 | 74 | 1017.8 |
| 20260901055019 | 79 | 0 | 0.0 | 0.0 | 0.00 | 0.00 | 0.00 | 74 | 1017.8 |
| 20260901054540 | 79 | 0 | 0.0 | 0.0 | 0.00 | 0.00 | 0.00 | 74 | 1017.9 |
| 20260901054020 | 80 | 0 | 0.0 | 0.0 | 0.00 | 0.00 | 0.00 | 74 | 1017.8 |
| 20260901053518 | 80 | 0 | 0.0 | 0.9 | 0.00 | 0.00 | 0.00 | 74 | 1017.9 |
| 20260901053056 | 80 | 0 | 0.0 | 0.9 | 0.00 | 0.00 | 0.00 | 74 | 1017.8 |
| 20260901052527 | 80 | 0 | 0.0 | 0.9 | 0.00 | 0.00 | 0.00 | 74 | 1017.9 |
| 20260901052023 | 80 | 0 | 0.0 | 0.0 | 0.00 | 0.00 | 0.00 | 74 | 1018.0 |
| 20260901051542 | 80 | 0 | 0.0 | 0.0 | 0.00 | 0.00 | 0.00 | 74 | 1017.7 |
| 20260901051019 | 80 | 0 | 0.0 | 0.0 | 0.00 | 0.00 | 0.00 | 74 | 1017.8 |
| 20260901050518 | 80 | 0 | 0.0 | 0.0 | 0.00 | 0.00 | 0.00 | 74 | 1017.7 |
| 20260901050041 | 80 | 0 | 0.0 | 0.0 | 0.00 | 0.00 | 0.00 | 74 | 1017.7 |
| 20260901045518 | 81 | 0 | 0.0 | 0.0 | 0.00 | 0.00 | 0.00 | 74 | 1017.8 |
| 20260901045017 | 81 | 0 | 0.0 | 0.0 | 0.00 | 0.00 | 0.00 | 74 | 1017.8 |
| 20260901044542 | 81 | 0 | 0.0 | 0.0 | 0.00 | 0.00 | 0.00 | 74 | 1017.6 |
| 20260901044020 | 81 | 0 | 0.0 | 0.0 | 0.00 | 0.00 | 0.00 | 74 | 1017.6 |
| 20260901043517 | 81 | 0 | 0.0 | 0.9 | 0.00 | 0.00 | 0.00 | 74 | 1017.8 |
| 20260901043044 | 81 | 0 | 0.0 | 0.9 | 0.00 | 0.00 | 0.00 | 74 | 1017.7 |
| 20260901042522 | 81 | 0 | 0.0 | 0.9 | 0.00 | 0.00 | 0.00 | 74 | 1017.5 |
| 20260901042017 | 81 | 0 | 0.0 | 0.9 | 0.00 | 0.00 | 0.00 | 74 | 1017.7 |
| 20260901041542 | 81 | 0 | 0.0 | 0.0 | 0.00 | 0.00 | 0.00 | 73 | 1017.7 |
| 20260901041019 | 81 | 0 | 0.0 | 0.0 | 0.00 | 0.00 | 0.00 | 73 | 1017.8 |
| 20260901040518 | 82 | 0 | 0.0 | 0.0 | 0.00 | 0.00 | 0.00 | 73 | 1017.9 |
| 20260901040043 | 82 | 0 | 0.0 | 0.0 | 0.00 | 0.00 | 0.00 | 73 | 1018.0 |
| 20260901035521 | 82 | 0 | 0.0 | 0.9 | 0.00 | 0.00 | 0.00 | 73 | 1018.0 |
| 20260901035024 | 82 | 0 | 0.0 | 0.9 | 0.00 | 0.00 | 0.00 | 73 | 1018.0 |
| 20260901034541 | 82 | 0 | 0.0 | 0.9 | 0.00 | 0.00 | 0.00 | 73 | 1017.8 |
| 20260901034022 | 82 | 0 | 0.0 | 0.9 | 0.00 | 0.00 | 0.00 | 73 | 1018.0 |
| 20260901033518 | 82 | 0 | 0.0 | 0.9 | 0.00 | 0.00 | 0.00 | 73 | 1018.0 |
| 20260901033047 | 82 | 0 | 0.0 | 0.0 | 0.00 | 0.00 | 0.00 | 73 | 1018.0 |
| 20260901032520 | 82 | 0 | 0.0 | 0.0 | 0.00 | 0.00 | 0.00 | 72 | 1018.0 |
| 20260901032021 | 83 | 0 | 0.0 | 0.0 | 0.00 | 0.00 | 0.00 | 72 | 1018.1 |
| 20260901031553 | 83 | 0 | 0.0 | 0.0 | 0.00 | 0.00 | 0.00 | 72 | 1018.1 |
| 20260901031030 | 83 | 0 | 0.0 | 0.9 | 0.00 | 0.00 | 0.00 | 71 | 1018.1 |
| 20260901030519 | 83 | 0 | 0.0 | 1.7 | 0.00 | 0.00 | 0.00 | 72 | 1018.2 |
| 20260901030042 | 83 | 0 | 0.0 | 1.7 | 0.00 | 0.00 | 0.00 | 72 | 1018.0 |
| 20260901025521 | 83 | 0 | 0.0 | 1.7 | 0.00 | 0.00 | 0.00 | 71 | 1018.0 |
| 20260901025020 | 83 | 0 | 0.0 | 0.9 | 0.00 | 0.00 | 0.00 | 71 | 1018.2 |
| 20260901024541 | 83 | 0 | 0.0 | 0.9 | 0.00 | 0.00 | 0.00 | 71 | 1018.1 |
| 20260901024019 | 83 | 0 | 0.0 | 0.9 | 0.00 | 0.00 | 0.00 | 71 | 1018.2 |
| 20260901023522 | 83 | 0 | 0.0 | 0.0 | 0.00 | 0.00 | 0.00 | 71 | 1018.2 |
| 20260901023043 | 83 | 0 | 0.0 | 0.9 | 0.00 | 0.00 | 0.00 | 71 | 1018.2 |
| 20260901022528 | 83 | 0 | 0.0 | 0.9 | 0.00 | 0.00 | 0.00 | 71 | 1018.2 |
| 20260901022023 | 83 | 0 | 0.0 | 0.9 | 0.00 | 0.00 | 0.00 | 70 | 1018.0 |
| 20260901021544 | 83 | 0 | 0.0 | 0.0 | 0.00 | 0.00 | 0.00 | 70 | 1018.3 |
| 20260901021018 | 84 | 0 | 0.0 | 0.0 | 0.00 | 0.00 | 0.00 | 70 | 1018.1 |
| 20260901020521 | 84 | 0 | 0.0 | 0.0 | 0.00 | 0.00 | 0.00 | 70 | 1018.0 |
| 20260901020043 | 84 | 0 | 0.0 | 0.0 | 0.00 | 0.00 | 0.00 | 69 | 1018.1 |
| 20260901015520 | 84 | 0 | 0.0 | 0.0 | 0.00 | 0.00 | 0.00 | 69 | 1017.9 |
| 20260901015018 | 85 | 0 | 0.0 | 0.0 | 0.00 | 0.00 | 0.00 | 69 | 1017.7 |
| 20260901014542 | 85 | 0 | 0.0 | 0.0 | 0.00 | 0.00 | 0.00 | 68 | 1017.8 |
| 20260901014029 | 85 | 0 | 0.0 | 0.0 | 0.00 | 0.00 | 0.00 | 67 | 1017.6 |
| 20260901013526 | 85 | 0 | 0.0 | 0.0 | 0.00 | 0.00 | 0.00 | 67 | 1017.6 |
| 20260901013050 | 86 | 0 | 0.0 | 0.0 | 0.00 | 0.00 | 0.00 | 66 | 1017.5 |
| 20260901012518 | 86 | 0 | 0.0 | 0.0 | 0.00 | 0.00 | 0.00 | 66 | 1017.5 |
| 20260901012020 | 86 | 0 | 0.0 | 0.0 | 0.00 | 0.00 | 0.00 | 65 | 1017.4 |
| 20260901011541 | 86 | 0 | 0.0 | 0.0 | 0.00 | 0.00 | 0.00 | 65 | 1017.3 |
| 20260901011020 | 87 | 0 | 0.0 | 0.0 | 0.00 | 0.00 | 0.00 | 64 | 1017.2 |
| 20260901010518 | 87 | 0 | 0.0 | 0.0 | 0.00 | 0.00 | 0.00 | 64 | 1017.2 |
| 20260901010041 | 87 | 0 | 0.0 | 0.0 | 0.00 | 0.00 | 0.00 | 63 | 1017.3 |
| 20260901005518 | 88 | 0 | 0.0 | 0.0 | 0.00 | 0.00 | 0.00 | 63 | 1017.2 |
| 20260901005022 | 88 | 0 | 0.0 | 0.0 | 0.00 | 0.00 | 0.00 | 62 | 1017.1 |
| 20260901004545 | 88 | 0 | 0.0 | 0.0 | 0.00 | 0.00 | 0.00 | 61 | 1016.9 |
| 20260901004018 | 89 | 0 | 0.0 | 0.0 | 0.00 | 0.00 | 0.00 | 60 | 1016.9 |
| 20260901003520 | 89 | 0 | 0.0 | 0.0 | 0.00 | 0.00 | 0.00 | 59 | 1017.1 |
| 20260901003044 | 90 | 0 | 0.0 | 0.0 | 0.00 | 0.00 | 0.00 | 59 | 1017.0 |
| 20260901002522 | 90 | 0 | 0.0 | 0.0 | 0.00 | 0.00 | 0.00 | 59 | 1017.0 |
| 20260901002024 | 90 | 0 | 0.0 | 0.9 | 0.00 | 0.00 | 0.00 | 57 | 1017.1 |
| 20260901001542 | 91 | 0 | 0.0 | 0.9 | 0.00 | 0.00 | 0.00 | 57 | 1016.8 |
| 20260901001021 | 91 | 0 | 0.0 | 0.9 | 0.00 | 0.00 | 0.00 | 56 | 1016.9 |
| 20260901000523 | 91 | 0 | 0.0 | 0.9 | 0.00 | 0.00 | 0.00 | 56 | 1017.0 |
| 20260901000044 | 91 | 0 | 0.0 | 0.9 | 0.00 | 0.00 | 0.00 | 56 | 1016.8 |
| 20260831235520 | 91 | 0 | 0.0 | 1.7 | 0.00 | 0.00 | 0.00 | 56 | 1016.8 |
| 20260831235025 | 91 | 0 | 0.0 | 1.7 | 0.00 | 0.00 | 0.00 | 56 | 1016.8 |
| 20260831234543 | 91 | 0 | 0.0 | 1.7 | 0.00 | 0.00 | 0.00 | 56 | 1016.8 |
| 20260831234026 | 91 | 0 | 0.0 | 0.9 | 0.00 | 0.00 | 0.00 | 56 | 1016.9 |
| 20260831233524 | 91 | 0 | 0.0 | 0.9 | 0.00 | 0.00 | 0.00 | 58 | 1016.8 |
| 20260831233042 | 91 | 0 | 0.0 | 0.0 | 0.00 | 0.00 | 0.00 | 60 | 1016.7 |
| 20260831232519 | 91 | 0 | 0.0 | 0.0 | 0.00 | 0.00 | 0.00 | 60 | 1016.7 |
| 20260831232020 | 91 | 0 | 0.0 | 0.0 | 0.00 | 0.00 | 0.00 | 60 | 1016.7 |
| 20260831231541 | 91 | 0 | 0.0 | 0.9 | 0.00 | 0.00 | 0.00 | 60 | 1016.9 |
| 20260831231020 | 91 | 0 | 0.0 | 0.9 | 0.00 | 0.00 | 0.00 | 59 | 1016.8 |
| 20260831230519 | 91 | 0 | 0.0 | 0.0 | 0.00 | 0.00 | 0.00 | 57 | 1016.8 |
| 20260831230059 | 92 | 0 | 0.0 | 0.0 | 0.00 | 0.00 | 0.00 | 57 | 1016.9 |
| 20260831225521 | 93 | 0 | 0.0 | 0.0 | 0.00 | 0.00 | 0.00 | 56 | 1016.8 |
| 20260831225030 | 93 | 0 | 0.0 | 0.0 | 0.00 | 0.00 | 0.00 | 54 | 1017.0 |
| 20260831224542 | 93 | 0 | 0.0 | 0.0 | 0.00 | 0.00 | 0.00 | 54 | 1016.9 |
| 20260831224020 | 93 | 0 | 0.0 | 0.9 | 0.00 | 0.00 | 0.00 | 52 | 1017.0 |
| 20260831223520 | 93 | 0 | 0.0 | 2.6 | 0.00 | 0.00 | 0.00 | 52 | 1017.1 |
| 20260831223039 | 94 | 30 | 0.0 | 2.6 | 0.00 | 0.00 | 0.00 | 52 | 1017.1 |
| 20260831222521 | 94 | 0 | 0.0 | 2.6 | 0.00 | 0.00 | 0.00 | 51 | 1017.0 |
| 20260831222026 | 94 | 0 | 0.0 | 2.6 | 0.00 | 0.00 | 0.00 | 50 | 1017.0 |
| 20260831221548 | 95 | 0 | 0.0 | 3.5 | 0.00 | 0.00 | 0.00 | 50 | 1017.1 |
| 20260831221024 | 95 | 0 | 0.0 | 3.5 | 0.00 | 0.00 | 0.00 | 50 | 1017.0 |
| 20260831220522 | 95 | 0 | 0.9 | 3.5 | 0.00 | 0.00 | 0.00 | 50 | 1017.1 |
| 20260831220046 | 95 | 0 | 0.9 | 3.5 | 0.00 | 0.00 | 0.00 | 50 | 1017.0 |
| 20260831215522 | 95 | 49 | 0.0 | 1.7 | 0.00 | 0.00 | 0.00 | 51 | 1017.0 |
| 20260831215021 | 94 | 54 | 0.0 | 0.9 | 0.00 | 0.00 | 0.00 | 51 | 1017.0 |
| 20260831214546 | 94 | 54 | 0.0 | 2.6 | 0.00 | 0.00 | 0.00 | 51 | 1017.1 |
| 20260831214023 | 94 | 0 | 0.0 | 2.6 | 0.00 | 0.00 | 0.00 | 50 | 1017.1 |